Weather History for Tekamah, NE

Change the Weather History Date:

Thursday, March 13, 2014

  Actual Average Record
Temperature  
Mean Temperature 46 °F -  
Max Temperature 70 °F 45 °F 82 °F (2012)
Min Temperature 23 °F 25 °F 1 °F (1975)
Degree Days  
Heating Degree Days 19    
Moisture  
Dew Point 25 °F    
Average Humidity 53    
Maximum Humidity 91    
Minimum Humidity 18    
Precipitation  
Precipitation 0.00 in - - ()
Sea Level Pressure  
Sea Level Pressure 29.87 in    
Wind  
Wind Speed 8 mph (SSW)    
Max Wind Speed 26 mph    
Max Gust Speed 32 mph    
Visibility 9 miles    
Events      
Averages and records for this station are not official NWS values.
T = Trace of Precipitation, MM = Missing Value Source: NWS Daily Summary

Daily Weather History Graph

Daily Weather History Graph

Search for Another Location

Airport:

Trip Planner

Search our weather history database for the weather conditions in past years. The results will help you decide how hot, cold, wet, or windy it might be!

Date:

Astronomy

Mar. 13, 2014 Rise Set
Actual Time 7:39 AM CDT 7:29 PM CDT
Civil Twilight 7:12 AM CDT 7:56 PM CDT
Nautical Twilight 6:39 AM CDT 8:29 PM CDT
Astronomical Twilight 6:07 AM CDT 9:01 PM CDT
Moon 4:54 PM CDT (3/13) 5:49 AM CDT (3/13)
Length of Visible Light 12h 44m
Length of Day
11h 49m
Waxing Gibbous, 91% of the Moon is Illuminated
Mar 13
Waxing Gibbous
Mar 16
Full
Mar 23
Last Quarter
Mar 30
New
Apr 7
First Quarter

Hourly Weather History & Observations

Time (CDT) Temp. Windchill Dew Point Humidity Pressure Visibility Wind Dir Wind Speed Gust Speed Precip Events Conditions
12:54 AM 28.9 °F 25.2 °F 25.0 °F 85% 30.06 in 9.0 mi East 3.5 mph - N/A   Clear
1:54 AM 26.1 °F - 23.0 °F 88% 30.05 in 6.0 mi Calm Calm - N/A   Clear
2:54 AM 24.1 °F 17.0 °F 21.9 °F 91% 30.03 in 8.0 mi SSE 5.8 mph - N/A   Clear
3:54 AM 24.1 °F 18.2 °F 21.0 °F 88% 30.01 in 6.0 mi SSE 4.6 mph - N/A   Clear
4:54 AM 23.0 °F - 19.9 °F 88% 30.01 in 7.0 mi Calm Calm - N/A   Clear
5:54 AM 25.0 °F 18.1 °F 21.0 °F 85% 30.01 in 10.0 mi SW 5.8 mph - N/A   Clear
6:54 AM 30.0 °F 26.5 °F 23.0 °F 75% 30.00 in 10.0 mi Variable 3.5 mph - N/A   Clear
7:54 AM 34.0 °F - 24.1 °F 67% 30.00 in 10.0 mi Calm Calm - N/A   Clear
8:54 AM 34.0 °F 31.0 °F 28.0 °F 79% 30.01 in 10.0 mi ESE 3.5 mph - N/A   Clear
9:54 AM 42.1 °F 36.6 °F 30.9 °F 65% 30.00 in 10.0 mi SSW 9.2 mph - N/A   Clear
10:54 AM 48.9 °F - 30.9 °F 50% 29.97 in 10.0 mi WSW 9.2 mph - N/A   Clear
11:54 AM 57.9 °F - 32.0 °F 37% 29.94 in 10.0 mi WSW 11.5 mph - N/A   Clear
12:54 PM 62.1 °F - 30.0 °F 30% 29.91 in 10.0 mi SW 17.3 mph - N/A   Clear
1:54 PM 64.0 °F - 28.0 °F 26% 29.87 in 10.0 mi SW 21.9 mph 27.6 mph N/A   Clear
2:54 PM 66.9 °F - 26.1 °F 21% 29.82 in 10.0 mi SW 26.5 mph 32.2 mph N/A   Clear
3:54 PM 68.0 °F - 25.0 °F 20% 29.78 in 10.0 mi SW 20.7 mph 27.6 mph N/A   Clear
4:54 PM 69.1 °F - 23.0 °F 18% 29.74 in 10.0 mi SW 18.4 mph 28.8 mph N/A   Clear
5:54 PM 68.0 °F - 23.0 °F 18% 29.72 in 10.0 mi SSW 21.9 mph 26.5 mph N/A   Clear
6:54 PM 63.0 °F - 21.9 °F 21% 29.70 in 10.0 mi SSW 12.7 mph - N/A   Clear
7:54 PM 50.0 °F - 24.1 °F 36% 29.70 in 10.0 mi South 11.5 mph - N/A   Clear
8:54 PM 43.0 °F 38.2 °F 23.0 °F 45% 29.70 in 10.0 mi South 8.1 mph - N/A   Clear
9:54 PM 41.0 °F 34.3 °F 21.9 °F 47% 29.67 in 10.0 mi South 11.5 mph - N/A   Clear
10:54 PM 41.0 °F 36.4 °F 21.9 °F 47% 29.64 in 10.0 mi South 6.9 mph - N/A   Clear
11:54 PM 45.0 °F 40.1 °F 21.9 °F 40% 29.62 in 10.0 mi SSW 9.2 mph - N/A   Clear